x

8761305 - Shell Beach, La (shbl1) Weather Station

6:48pm - Mon 20th Nov 2017 All times are CST. -6 hours from GMT.

  • Wind
    8mph, 9mph gusts
  • Sea Temp 65°f
  • Air Temp 56°f
  • Sea Pressure 1020.3mb
  • 8761305 - Shell Beach, La
  • 8761305 - Shell Beach, La

More Historic Weather Station data

Upgrade to MSW Pro to gain access to the past 30 days of data for over 8000 Wavebouys and Weather Stations around the globe.

Join

Comparision Forecast

View Surf forecast
   
Mon 11/20 6:48pm 8 9 mph 1020.3mb 65f 56f
6:42pm 8 8 mph 1020.4mb 65f 56f
6:36pm 8 9 mph 1020.4mb 65f 56f
6:30pm 8 9 mph 1020.4mb 65f 56f
6:24pm 7 9 mph 1020.4mb 65f 56f
6:18pm 8 9 mph - - -
6:12pm 8 9 mph 1020.3mb 65f 56f
6:06pm 8 9 mph 1020.2mb 65f 56f
6:00pm 8 10 mph 1020.2mb 65f 56f
5:54pm 8 9 mph 1020.2mb 65f 56f
5:48pm 7 9 mph 1020.3mb 65f 56f
5:42pm 8 10 mph 1020.3mb 65f 56f
5:36pm 8 10 mph 1020.2mb 65f 56f
5:30pm 9 10 mph 1020.1mb 65f 56f
5:24pm 9 10 mph 1020.1mb 65f 56f
5:18pm 10 11 mph 1020.1mb 66f 56f
5:12pm 8 10 mph 1020.1mb 66f 56f
5:06pm 9 11 mph 1020.1mb 66f 56f
5:00pm 9 10 mph 1020.2mb 66f 56f
4:54pm 8 9 mph 1020.3mb 66f 57f
4:48pm 8 9 mph - - -
4:42pm 7 9 mph 1020.4mb 66f 57f
4:36pm 8 8 mph 1020.3mb 66f 57f
4:30pm 8 10 mph 1020.3mb 66f 57f
4:24pm 8 10 mph 1020.3mb 66f 57f
4:18pm 8 10 mph - - -
4:12pm 10 11 mph 1020.1mb 66f 57f
4:06pm 9 10 mph 1020.2mb 66f 56f
4:00pm 9 10 mph 1020.2mb 66f 56f
3:54pm 9 10 mph 1020.2mb 66f 57f
3:48pm 8 10 mph 1020.2mb 66f 57f
3:42pm 9 11 mph 1020.1mb 66f 56f
3:36pm 8 11 mph 1020.2mb 65f 57f
3:30pm 9 10 mph 1020.1mb 65f 57f
3:24pm 7 8 mph 1020.1mb 65f 57f
3:18pm 8 9 mph 1020.3mb 65f 57f
3:12pm 6 8 mph 1020.3mb 65f 57f
3:06pm 6 7 mph 1020.3mb 65f 56f
3:00pm 6 8 mph 1020.4mb 65f 57f
2:54pm 7 8 mph 1020.4mb 65f 56f
2:48pm 7 8 mph 1020.5mb 65f 57f
2:42pm 7 8 mph 1020.6mb 65f 57f
2:36pm 7 8 mph 1020.6mb 65f 56f
2:30pm 6 7 mph 1020.6mb 65f 56f
2:24pm 6 7 mph 1020.7mb 65f 56f
2:18pm 6 7 mph - - -
2:12pm 6 8 mph 1020.8mb 65f 56f
2:06pm 6 9 mph 1020.8mb 65f 56f
2:00pm 7 8 mph 1020.8mb 65f 56f
1:54pm 6 8 mph 1020.9mb 65f 56f
1:48pm 6 8 mph 1020.8mb - -
1:42pm 7 8 mph 1020.9mb 65f 56f
1:36pm 6 8 mph 1021mb 65f 56f
1:30pm 7 8 mph 1021mb 65f 56f
1:24pm 8 9 mph 1021.1mb 65f 56f
1:18pm 6 8 mph 1021.3mb 65f 56f
1:12pm 6 8 mph 1021.4mb 64f 56f
1:06pm 7 8 mph 1021.6mb 64f 56f
1:00pm 6 8 mph 1021.8mb 64f 56f
12:54pm 6 7 mph 1021.8mb 64f 56f
12:48pm 7 8 mph 1021.9mb 64f 56f
12:42pm 6 7 mph 1021.9mb 64f 56f
12:36pm 5 7 mph 1022.1mb 64f 56f
12:30pm 6 8 mph 1022.1mb 64f 56f
12:24pm 3 7 mph 1022.2mb 64f 56f
12:18pm 5 7 mph 1022.3mb 64f -
12:12pm 6 8 mph 1022.3mb 64f 56f
12:06pm 6 7 mph 1022.4mb 64f 56f
12:00pm 6 7 mph 1022.3mb 63f 55f
11:54am 6 7 mph 1022.5mb 63f 55f
11:48am 2 5 mph 1022.7mb 62f 56f
11:42am 5 6 mph 1022.8mb 62f 56f
11:36am 5 6 mph 1022.8mb 62f 56f
11:30am 3 6 mph 1022.8mb 62f 55f
11:24am 6 8 mph 1022.8mb 62f 55f
11:18am 7 8 mph 1022.9mb 62f 55f
11:12am 5 8 mph 1023mb 62f 56f
11:06am 5 8 mph 1023.1mb 62f 55f
11:00am 6 9 mph 1023.1mb 62f 55f
10:54am 6 8 mph 1023.2mb 62f 55f
10:48am 7 8 mph 1023.3mb 62f 55f
10:42am 5 8 mph 1023.3mb 62f 55f
10:36am 6 8 mph 1023.5mb 62f 55f
10:30am 7 9 mph 1023.6mb 62f 54f
10:24am 8 10 mph 1023.6mb 62f 54f
10:18am 8 10 mph 1023.7mb 62f 54f
10:12am 8 11 mph 1023.6mb 62f 54f
10:06am 8 10 mph 1023.7mb 62f 54f
10:00am 8 10 mph 1023.9mb 62f 54f
9:54am 9 11 mph 1024mb 62f 54f
9:48am 7 9 mph 1024.1mb 62f 54f
9:42am 8 13 mph 1024.3mb 62f 54f
9:36am 8 11 mph 1024.4mb 62f 54f
9:30am 8 14 mph 1024.3mb 62f 53f
9:24am 11 15 mph 1024.1mb 62f 53f
9:18am 11 17 mph 1024.1mb 62f 53f
9:12am 14 16 mph 1024mb 62f 53f
9:06am 14 16 mph 1024.1mb 62f 53f
9:00am 14 16 mph 1024.1mb 62f 53f
8:54am 15 18 mph 1023.9mb 62f 53f
8:48am 16 18 mph 1024mb 62f 52f
8:42am 14 17 mph 1024.1mb 62f 52f
8:36am 15 18 mph 1024mb 62f 52f
8:30am 17 20 mph 1023.9mb 62f 52f
8:24am 18 22 mph 1023.9mb 62f 52f
8:18am 18 21 mph 1024mb 62f 52f
8:12am 20 22 mph 1024mb 62f 52f
8:06am 20 22 mph 1024mb 62f 52f
8:00am 17 21 mph 1024mb 62f 52f
7:54am 17 22 mph 1024.1mb 62f 52f
7:48am 17 21 mph 1024.1mb 62f 52f
7:42am 17 21 mph 1024.2mb 62f 52f
7:36am 17 22 mph 1024.1mb 62f 52f
7:30am 20 23 mph 1023.9mb 62f 52f
7:24am 18 22 mph 1023.8mb 62f 51f
7:18am 20 22 mph 1023.8mb 62f 52f
7:12am 20 22 mph 1023.8mb 62f 51f
7:06am 18 22 mph 1023.7mb 62f 51f
7:00am 17 20 mph 1023.7mb 62f 51f
6:54am 17 23 mph 1023.6mb 62f 51f
6:48am 20 24 mph 1023.7mb 62f 51f
6:42am 17 21 mph 1023.6mb 62f 51f
6:36am 17 21 mph 1023.7mb 62f 51f
6:30am 20 22 mph 1023.6mb 62f 51f
6:24am 17 22 mph 1023.6mb 62f 51f
6:18am 18 22 mph 1023.4mb 62f 51f
6:12am 20 22 mph 1023.2mb 62f 51f
6:06am 18 23 mph 1023.3mb 62f 51f
6:00am 21 23 mph 1023.2mb 62f 51f
5:54am 18 22 mph 1023.2mb 62f 51f
5:48am 17 23 mph 1023.2mb 62f 51f
5:42am 20 23 mph 1023mb 62f 51f
5:36am 18 23 mph 1022.9mb 62f 51f
5:30am 18 23 mph 1022.8mb 62f 51f
5:24am 21 23 mph 1022.7mb 63f 51f
5:18am 21 24 mph 1022.6mb 63f 51f
5:12am 21 25 mph 1022.5mb 63f 51f
5:06am 22 24 mph 1022.5mb 63f 51f
5:00am 20 23 mph 1022.5mb 63f 51f
4:54am 21 23 mph 1022.4mb 63f 51f
4:48am 21 24 mph 1022.5mb 63f 51f
4:42am 20 24 mph 1022.5mb 63f 52f
4:36am 20 23 mph 1022.6mb 64f 51f
4:30am 20 23 mph 1022.6mb 64f 52f
4:24am 21 23 mph 1022.6mb 64f 52f
4:18am 20 23 mph 1022.6mb 64f 52f
4:12am 20 22 mph 1022.5mb 64f 52f
4:06am 20 23 mph 1022.5mb 64f 52f
4:00am 20 23 mph 1022.4mb 64f 52f
3:54am 21 24 mph 1022.5mb 64f 52f
3:48am 18 23 mph 1022.6mb 64f 53f
3:42am 22 23 mph 1022.5mb 64f 52f
3:36am 20 23 mph 1022.5mb 64f 52f
3:30am 20 23 mph 1022.4mb 64f 52f
3:24am 20 23 mph 1022.6mb 64f 52f
3:18am 20 23 mph 1022.7mb 64f 52f
3:12am 22 24 mph 1022.7mb 64f 52f
3:06am 22 24 mph 1022.7mb 64f 52f
3:00am 21 24 mph 1022.8mb 64f 53f
2:54am 21 24 mph 1022.7mb 64f 53f
2:48am 20 22 mph 1022.8mb 64f 53f
2:42am 18 23 mph 1022.8mb 64f 53f
2:36am 20 23 mph 1022.9mb 64f 53f
2:30am 18 22 mph 1022.9mb 64f 53f
2:24am 20 22 mph 1023mb 64f 53f
2:18am 20 22 mph 1023.1mb 64f 52f
2:12am 20 23 mph 1023mb 64f 53f
2:06am 20 23 mph 1023mb 64f 53f
2:00am 20 24 mph 1023.1mb 64f 53f
1:54am 21 24 mph 1023.1mb 64f 53f
1:48am 22 25 mph 1023mb 65f 53f
1:42am 21 24 mph 1023mb 65f 53f
1:36am 20 24 mph 1022.9mb 65f 53f
1:30am 21 25 mph 1022.8mb 65f 54f
1:24am 23 25 mph 1022.8mb 65f 54f
1:18am 22 26 mph 1022.9mb 65f 54f
1:12am 23 28 mph 1022.8mb 65f 53f
1:06am 23 26 mph 1022.8mb 65f 54f
1:00am 23 26 mph 1022.8mb 65f 54f
12:54am 23 28 mph 1022.8mb 65f 54f
12:48am 24 26 mph 1022.8mb 65f 54f
12:42am 24 28 mph 1022.9mb 65f 54f
12:36am 23 26 mph 1022.9mb 65f 54f
12:30am 21 26 mph 1022.9mb 65f 55f
12:24am 23 26 mph 1023mb 65f 54f
12:18am 23 26 mph 1023mb 65f 55f
12:12am 22 25 mph 1023.1mb 65f 55f
12:06am 23 26 mph 1023.1mb 65f 55f
12:00am 23 26 mph 1023.1mb 65f 55f
Sun 11/19 11:54pm 23 26 mph 1023.1mb 65f 55f
11:48pm 21 25 mph 1023mb 65f 55f
11:42pm 22 26 mph 1023mb 65f -
11:36pm 24 29 mph 1022.9mb 65f -
11:30pm 24 28 mph 1022.8mb 65f 55f
11:24pm 24 26 mph 1022.9mb 66f 55f
11:18pm 24 26 mph 1022.9mb 66f 55f
11:12pm 23 26 mph 1023mb 66f 55f
11:06pm 24 28 mph 1023mb 66f 55f
11:00pm 23 26 mph 1023.1mb 66f 56f
10:54pm 24 28 mph 1023mb 66f 56f
10:48pm 24 28 mph 1023.1mb 67f 56f
10:42pm 22 26 mph 1023.2mb 67f 56f
10:36pm 23 26 mph 1023.2mb 67f 56f
10:30pm 23 26 mph 1023.2mb 66f 56f
10:24pm 22 26 mph 1023.2mb 66f 56f
10:18pm 23 26 mph 1023.2mb 66f 56f
10:12pm 22 26 mph 1023.1mb 66f 56f
10:06pm 22 26 mph 1023.1mb 66f 56f
10:00pm 22 24 mph 1023.1mb 66f 56f
9:54pm 23 26 mph 1023mb 66f 56f
9:48pm 22 25 mph 1023.1mb 66f 56f
9:42pm 22 25 mph 1023mb 66f 57f
9:36pm 22 26 mph 1022.9mb 66f 57f
9:30pm 21 23 mph 1022.9mb 66f 57f
9:24pm 20 25 mph 1022.9mb 67f 57f
9:18pm 20 24 mph 1022.9mb 67f 57f
9:12pm 21 23 mph 1023mb 67f 57f
9:06pm 22 25 mph 1023mb 67f 57f
9:00pm 22 25 mph 1022.8mb 67f 57f
8:54pm 22 25 mph 1022.8mb 67f 57f
8:48pm 22 25 mph 1022.7mb 67f 57f
8:42pm 22 25 mph 1022.7mb 67f 58f
8:36pm 22 25 mph 1022.7mb 67f 58f
8:30pm 23 25 mph 1022.5mb 67f 58f
8:24pm 22 26 mph 1022.5mb 67f 58f
8:18pm 21 26 mph 1022.5mb 67f 58f
8:12pm 22 24 mph 1022.5mb 67f 58f
8:06pm 21 24 mph 1022.4mb 67f 58f
8:00pm 22 24 mph 1022.4mb 67f 58f
7:54pm 22 24 mph 1022.4mb 67f 58f
7:48pm 22 24 mph 1022.4mb 67f 58f
7:42pm 20 24 mph 1022.3mb 67f 58f
7:36pm 21 25 mph 1022.3mb 67f 58f
7:30pm 22 25 mph 1022.2mb 67f 58f
7:24pm 22 25 mph 1022.3mb 67f 58f
7:18pm 22 28 mph 1022.2mb 67f 58f
7:12pm 23 24 mph 1022.1mb 67f 58f
7:06pm 23 25 mph 1022mb 68f 58f
7:00pm 21 26 mph 1022mb 68f 59f
6:54pm 22 25 mph 1021.9mb 68f 59f
6:48pm 23 25 mph 1021.7mb 68f 59f
6:42pm 21 24 mph 1021.6mb 68f 59f
6:36pm 22 25 mph 1021.6mb 68f 59f
6:30pm 23 26 mph 1021.5mb 68f 59f
6:24pm 23 28 mph 1021.4mb 68f 59f
6:18pm 22 26 mph 1021.3mb 68f 59f
6:12pm 23 28 mph 1021.2mb 68f 60f
6:06pm 22 28 mph 1021.1mb 68f 60f
6:00pm 22 25 mph 1021.1mb 68f 60f
5:54pm 21 26 mph 1020.9mb 68f 60f
5:48pm 22 28 mph 1020.9mb 68f 60f
5:42pm 24 28 mph 1020.9mb 68f 60f
5:36pm 21 25 mph 1020.8mb 68f 60f
5:30pm 20 22 mph 1020.7mb 68f 60f
5:24pm 20 24 mph 1020.7mb 68f 60f
5:18pm 21 24 mph 1020.7mb 68f 60f
5:12pm 20 24 mph 1020.6mb 68f 60f
5:06pm 18 24 mph 1020.5mb 68f 60f
5:00pm 21 24 mph 1020.4mb 68f 60f
4:54pm 22 23 mph 1020.4mb 68f 60f
4:48pm 21 22 mph 1020.3mb 68f 60f
4:42pm 22 24 mph 1020.2mb 68f 60f
4:36pm 20 22 mph 1020.2mb 68f 60f
4:30pm 17 22 mph 1020.1mb 68f 61f
4:24pm 18 22 mph 1020mb 68f 60f
4:18pm 18 21 mph 1020.2mb 68f 61f
4:12pm 17 22 mph 1020.1mb 68f 60f
4:06pm 20 22 mph 1020mb 68f 60f
4:00pm 18 22 mph 1019.9mb 68f 61f
3:54pm 20 23 mph 1019.8mb 68f 60f
3:48pm 21 23 mph 1019.7mb 68f 60f
3:42pm 20 22 mph 1019.7mb 68f 61f
3:36pm 16 22 mph 1019.8mb 68f 61f
3:30pm 17 21 mph 1019.8mb 68f 60f
3:24pm 17 21 mph 1019.8mb 68f 61f
3:18pm 17 20 mph 1019.7mb 68f 61f
3:12pm 18 22 mph 1019.6mb 68f 60f
3:06pm 18 22 mph 1019.5mb 69f 60f
3:00pm 20 23 mph 1019.5mb 69f 60f
2:54pm 18 22 mph 1019.4mb 69f 60f
2:48pm 21 24 mph 1019.4mb 69f 60f
2:42pm 18 23 mph 1019.4mb 69f 60f
2:36pm 18 21 mph 1019.5mb 69f 60f
2:30pm 18 22 mph 1019.6mb 69f 60f
2:24pm 20 22 mph 1019.6mb 69f 60f
2:18pm 17 23 mph 1019.6mb 69f 60f
2:12pm 20 23 mph 1019.8mb 69f 60f
2:06pm 17 22 mph 1019.9mb 69f 59f
2:00pm 20 22 mph 1019.9mb 69f 59f
1:54pm 21 23 mph 1019.8mb 69f 59f
1:48pm 17 22 mph 1019.8mb 69f 59f
1:42pm 15 20 mph 1020mb 69f 59f
1:36pm 16 21 mph 1020mb 68f 59f
1:30pm 15 22 mph 1020mb 68f 59f
1:24pm 14 21 mph 1020mb 68f 59f
1:18pm 17 21 mph 1020.1mb 68f 58f
1:12pm 15 18 mph 1020.1mb 68f 58f
1:06pm 15 18 mph 1020.2mb 68f 58f
1:00pm 14 22 mph 1020.3mb 68f 58f
12:54pm 14 20 mph 1020.3mb 68f 58f
12:48pm 15 20 mph 1020.5mb 68f 57f
12:42pm 14 20 mph 1020.6mb 68f 57f
12:36pm 15 18 mph 1020.6mb 68f 57f
12:30pm 17 21 mph 1020.7mb 68f 57f
12:24pm 20 22 mph 1020.8mb 68f 57f
12:18pm 18 21 mph 1020.9mb 68f 57f
12:12pm 14 21 mph 1021.1mb 68f 56f
12:06pm 15 18 mph 1021.1mb 68f 57f
12:00pm 16 20 mph 1021.2mb 68f 56f
11:54am 14 20 mph 1021.3mb 68f 56f
11:48am 17 22 mph 1021.3mb 68f 56f
11:42am 15 18 mph 1021.3mb 68f 56f
11:36am 16 18 mph 1021.4mb 68f 55f
11:30am 16 23 mph 1021.5mb 68f 55f
11:24am 15 21 mph 1021.6mb 68f 55f
11:18am 15 20 mph 1021.7mb 68f 55f
11:12am 15 21 mph 1021.9mb 68f 55f
11:06am 17 21 mph 1022.1mb 68f 54f
11:00am 18 23 mph 1022.1mb 68f 54f
10:54am 20 23 mph 1022.2mb 68f 54f
10:48am 16 22 mph 1022.3mb 68f 54f
10:42am 18 24 mph 1022.3mb 68f 54f
10:36am 17 22 mph 1022.4mb 68f 54f
10:30am 21 23 mph 1022.5mb 68f -
10:24am 17 23 mph 1022.5mb 68f -
10:18am 21 24 mph 1022.5mb 68f -
10:12am 17 22 mph 1022.6mb 68f -
10:06am 18 23 mph 1022.7mb 68f -
10:00am 17 23 mph 1022.8mb 68f -
9:54am 21 24 mph 1022.9mb 68f -
9:48am 21 25 mph 1022.9mb 68f -
9:42am 21 28 mph 1022.9mb 68f -
9:36am 22 28 mph 1022.9mb 68f -
9:30am 22 26 mph 1022.8mb 68f -
9:24am 22 26 mph 1022.8mb 68f -
9:18am 24 28 mph 1022.8mb - -
9:12am 24 29 mph 1022.8mb 68f -
9:06am 23 29 mph 1022.8mb 68f -
9:00am 23 29 mph 1022.6mb 68f -
8:54am 23 28 mph 1022.6mb 68f -
8:48am 24 29 mph 1022.5mb 68f -
7:54am 28 34 mph 1021.9mb 68f -
7:48am 28 33 mph 1021.8mb 69f -
Fri 11/17 12:30pm 9 15 mph 1018.9mb 71f 73f
12:24pm 11 14 mph 1018.9mb 71f 73f
12:18pm 9 15 mph 1019mb 71f 73f
12:12pm 10 14 mph 1019mb 71f 73f
12:06pm 10 15 mph 1019.1mb 71f 72f
12:00pm 10 14 mph 1019.2mb 71f 73f
11:54am 10 14 mph 1019.3mb 71f 73f
11:48am 10 17 mph 1019.4mb 71f 73f
11:42am 11 14 mph 1019.5mb 71f 73f
11:36am 11 14 mph 1019.5mb 71f 73f
11:30am 10 13 mph 1019.6mb 71f 73f
11:24am 9 13 mph 1019.7mb 71f 73f
11:18am 6 11 mph 1019.9mb 71f 73f
11:12am 8 10 mph 1020.1mb 71f 72f
11:06am 5 6 mph 1020.2mb 71f 72f
11:00am 5 6 mph 1020.3mb 71f 70f
10:54am 3 6 mph 1020.4mb 71f 70f
10:48am 5 6 mph 1020.6mb 71f 69f
10:42am 5 6 mph 1020.7mb 71f 69f
10:36am 5 6 mph 1020.8mb 71f 68f
10:30am 5 7 mph 1020.8mb 71f 69f
10:24am 5 6 mph 1021mb 71f 68f
10:18am 3 5 mph 1021mb 71f 69f
10:12am 3 3 mph 1021.1mb 71f 69f
10:06am 3 5 mph 1021.2mb 71f 70f
10:00am 3 6 mph 1021.4mb 71f 70f
9:54am 5 6 mph 1021.5mb 71f 69f
9:48am 5 6 mph 1021.5mb 71f 69f
9:42am 6 7 mph 1021.5mb 71f 68f
9:36am 7 8 mph 1021.5mb 71f 69f
9:30am 6 7 mph 1021.5mb 70f 69f
9:24am 6 7 mph 1021.5mb 70f 68f
9:18am 6 7 mph 1021.5mb 70f 69f
9:12am 5 5 mph 1021.5mb 70f 70f
9:06am 3 5 mph 1021.5mb 70f 70f
9:00am 5 5 mph 1021.4mb 70f 69f
8:54am 5 5 mph 1021.4mb 70f 69f
8:48am 2 3 mph 1021.4mb 70f 69f
8:42am 2 3 mph 1021.4mb 70f 68f
8:36am 3 3 mph 1021.4mb 70f 67f
8:30am 3 5 mph 1021.4mb 70f 67f
8:24am 5 5 mph 1021.4mb 70f 67f
8:18am 5 6 mph 1021.5mb 70f 67f
8:12am 6 6 mph 1021.5mb 70f 67f
8:06am 6 6 mph 1021.4mb 70f 67f
8:00am 6 6 mph 1021.4mb 70f 67f
7:54am 6 6 mph 1021.3mb 70f 67f
7:48am 5 6 mph 1021.3mb 70f 67f
7:42am 6 6 mph 1021.2mb 70f 67f
7:36am 6 6 mph 1021.2mb 70f 67f
7:30am 6 7 mph 1021.1mb 70f 67f
7:24am 6 6 mph 1021mb 70f 67f
7:18am 6 6 mph 1021mb 70f 67f
7:12am 6 6 mph 1021mb 70f 67f
7:06am 6 6 mph 1021mb 70f 67f
7:00am 5 6 mph 1021mb 70f 66f
6:54am 5 6 mph 1020.9mb 70f 66f
6:48am 6 6 mph 1020.8mb 70f 65f
6:42am 5 6 mph 1020.7mb 70f 65f
6:36am 5 6 mph 1020.7mb 70f 65f
6:30am 6 6 mph 1020.7mb 70f 65f
6:24am 5 6 mph 1020.7mb 70f 65f
6:18am 3 5 mph 1020.5mb 70f 65f
6:12am 2 3 mph 1020.4mb 70f 65f
6:06am 2 3 mph 1020.3mb 70f 65f
6:00am 3 3 mph 1020.3mb 70f 65f
5:54am 3 5 mph 1020.2mb 70f 65f
5:48am 3 5 mph 1020.1mb 70f 65f
5:42am 2 3 mph 1020mb 70f 65f
5:36am 3 3 mph 1020mb 70f 65f
5:30am 2 2 mph 1019.9mb 70f 65f
5:24am 2 3 mph 1019.9mb 70f 65f
5:18am 3 3 mph 1019.8mb 70f 65f
5:12am 2 3 mph 1019.7mb 70f 65f
5:06am 3 3 mph 1019.7mb 71f 65f
5:00am 2 3 mph 1019.5mb 71f 65f
4:54am 2 3 mph 1019.4mb 71f 65f
4:48am 2 3 mph 1019.5mb 71f 65f
4:42am 3 3 mph 1019.4mb 71f 65f
4:36am 3 3 mph 1019.4mb 71f 65f
4:30am 3 5 mph 1019.4mb 71f 64f
4:24am 5 5 mph 1019.3mb 71f 64f
4:18am 2 3 mph 1019.4mb 71f 64f
4:12am 2 2 mph 1019.5mb 71f 64f
4:06am 2 3 mph 1019.4mb 71f 64f
4:00am 3 3 mph 1019.3mb 71f 64f
3:54am 3 3 mph 1019.3mb 71f 64f
3:48am 3 3 mph 1019.3mb 71f 64f
3:42am 3 5 mph 1019.3mb 71f 64f
3:36am 3 5 mph 1019.1mb 71f 64f
3:30am 3 3 mph 1019.2mb 71f 64f
3:24am 2 5 mph 1019.3mb 71f 64f
3:18am 3 5 mph 1019.2mb 71f 64f
3:12am 5 6 mph 1019.3mb 71f 64f
3:06am 5 5 mph 1019.2mb 71f 65f
3:00am 3 5 mph 1019.1mb 71f 65f
2:54am 3 5 mph 1019.1mb 71f 65f
2:48am 3 3 mph 1019.3mb 71f 65f
2:42am 3 3 mph 1019.4mb 71f 65f
2:36am 3 3 mph 1019.3mb 71f 64f
2:30am 3 3 mph 1019.3mb 71f 65f
2:24am 3 3 mph 1019.2mb 71f 65f
2:18am 2 3 mph 1019.3mb 71f 65f
2:12am 3 3 mph 1019.4mb 71f 65f
2:06am 3 3 mph 1019.3mb 71f 65f
2:00am 3 3 mph 1019.4mb 71f 65f